Preview of NWS' New Version of Forecast
This preview is not operational and should not be used for support decisions.

Regional Weather Roundup (RWR)

Issued by Cleveland, OH (CLE)

                            
000
ASUS41 KCLE 160812
RWRCLE
OHIO REGIONAL WEATHER ROUNDUP
NATIONAL WEATHER SERVICE WILMINGTON, OH
400 AM EDT TUE OCT 16 2018

NOTE: "FAIR" INDICATES FEW OR NO CLOUDS BELOW 12,000 FEET WITH NO
SIGNIFICANT WEATHER AND/OR OBSTRUCTIONS TO VISIBILITY.

OHZ001>008-015>018-024>027-034-035-043-044-160900-
   NORTHWEST OHIO
  
CITY           SKY/WX    TMP DP  RH WIND       PRES   REMARKS
DEFIANCE       FAIR      32  28  85 SW5       30.25S WCI  27          
FINDLAY        FAIR      34  30  85 S7        30.25S WCI  28          
TOLEDO EXPRESS FAIR      36  29  75 SW8       30.23F                  
TOLEDO EXEC    FAIR      34  30  85 SW5       30.24F WCI  30          
LIMA           FAIR      36  31  82 S6        30.26S                  
$$
 
OHZ009>014-019>023-028>033-038-089-160900-
   NORTHEAST OHIO
  
CITY           SKY/WX    TMP DP  RH WIND       PRES   REMARKS
CLE-HOPKINS    CLOUDY    41  31  67 SW8       30.25S                  
CLE-LAKEFRONT  CLOUDY    43  31  62 SW12      30.22S                  
CUY CO. ARPT   NOT AVBL                                               
LORAIN-ELYRIA  FAIR      35  27  72 W9        30.24S WCI  28          
ASHTABULA      CLOUDY    43  33  68 NW5       30.21S                  
AKRON-CANTON   CLOUDY    36  29  75 W5        30.23S                  
WOOSTER        FAIR      33  30  88 W3        30.24S                  
MANSFIELD      FAIR      34  30  85 SW3       30.24S                  
YOUNGSTOWN     CLOUDY    40  35  83 SW3       30.21R                  
$$
 
OHZ042-051>053-060>062-070>072-077>081-160900-
  SOUTHWEST OHIO
  
CITY           SKY/WX    TMP DP  RH WIND       PRES   REMARKS
CINC-COVINGTON MOCLDY    41  38  89 CALM      30.29R                  
CINC-LUNKEN    FAIR      42  40  92 CALM      30.31R                  
HAMILTON       FAIR      37  34  89 CALM      30.31R                  
DAYTON         FAIR      35  33  92 W3        30.28S                  
WRIGHT-PAT AFB FAIR      38  34  88 CALM      30.27S                  
DAYTON GENERAL FAIR      41  35  79 CALM      30.28R                  
WILMINGTON     FAIR      39  36  89 W5        30.27S                  
$$

OHZ036-037-039>041-045>050-054>059-063>069-073>076-082>088-160900-
  CENTRAL AND SOUTHEAST OHIO
  
CITY           SKY/WX    TMP DP  RH WIND       PRES   REMARKS
COLUMBUS       MOCLDY    41  33  73 CALM      30.26F                  
OSU AIRPORT    FAIR      37  33  85 CALM      30.26F                  
BOLTON FIELD   FAIR      37  36  97 CALM      30.27F FOG              
RICKENBACK AFB FAIR      39  35  84 CALM      30.27S                  
NEWARK         FAIR      39  35  86 CALM      30.26S                  
MARION         FAIR      35  31  85 SW3       30.26F                  
LANCASTER      FAIR      39  38  96 CALM      30.27S                  
ZANESVILLE     FAIR      40  34  79 NW5       30.26S                  
NEW PHILLY     FAIR      38  33  82 CALM      30.25F                  
$$